Regional Weather Roundup
Issued by NWS San Angelo, TX

Home | Current Version | Previous Version | Text Only | Print | Product List | Glossary On
Versions: 1 2 3 4 5 6 7 8 9 10 11 12 13 14 15 16 17 18 19 20 21 22 23 24 25 26 27 28 29 30 31 32 33 34 35 36 37 38 39 40 41 42 43 44 45 46 47 48 49 50
000
ASUS44 KSJT 220010
RWRSJT
WEST CENTRAL TEXAS REGIONAL WEATHER ROUNDUP
NATIONAL WEATHER SERVICE SAN ANGELO TX
700 PM CDT THU SEP 21 2017

NOTE: "FAIR" INDICATES FEW OR NO CLOUDS BELOW 12,000 FEET WITH NO
SIGNIFICANT WEATHER AND/OR OBSTRUCTIONS TO VISIBILITY.

TXZ049-054-064>066-071>073-076>078-098-099-113-114-127-128-139-140-
154-155-168>170-220100
...LOCATIONS ACROSS WEST CENTRAL TEXAS...

CITY           SKY/WX    TMP DP  RH WIND       PRES   REMARKS
SAN ANGELO     CLEAR     94  59  31 SE16G22   29.83S
ABILENE        CLEAR     91  63  39 S18       29.85R
DYESS AFB      PTCLDY    93  65  39 SE17      29.83R
JUNCTION       PTCLDY    92  61  35 SE14      29.87R
SWEETWATER     CLOUDY    91  58  32 SE18G24   29.88S
BROWNWOOD      CLEAR     91  63  38 SE13G18   29.86S
COLEMAN        CLEAR     92  60  34 SE17      29.86R
SONORA         CLEAR     91  61  35 S10       29.91S
OZONA          FAIR      90  59  35 S10       29.90R
BRADY          NOT AVBL
$$

TEXAS PANHANDLE/OKLAHOMA PANHANDLE

CITY           SKY/WX    TMP DP  RH WIND       PRES   REMARKS
AMARILLO       PTCLDY    90  49  24 S15G28    29.85S
BORGER         PTCLDY    93  50  23 S14       29.80R
CANADIAN       CLEAR     93  59  32 S14G23    29.77S
DALHART        CLEAR     90  40  17 S18G26    29.83R
DUMAS          CLEAR     89  43  20 S16G24    29.82S
GUYMON         NOT AVBL
HEREFORD       CLEAR     91  41  17 SW13G20   29.86S
PAMPA          CLEAR     91  49  23 S15       29.84S
PERRYTON       CLEAR     93  55  28 S21G28    29.77S
$$

SOUTHERN PANHANDLE/SOUTH PLAINS/ROLLING PLAINS

CITY           SKY/WX    TMP DP  RH WIND       PRES   REMARKS
LUBBOCK        PTCLDY    92  51  24 S18       29.85S
SNYDER         CLEAR     93  58  31 SE12      29.86R
CHILDRESS      PTCLDY    92  58  31 S12       29.79S
SEMINOLE       CLEAR     92  46  20 S8        29.87S
$$

PERMIAN BASIN

CITY           SKY/WX    TMP DP  RH WIND       PRES   REMARKS
MIDLAND        PTCLDY    93  58  30 S17       29.85S
ODESSA         CLEAR     92  57  30 S16       29.86S
WINK           PTCLDY    95  50  21 S9        29.80S
$$

FAR WEST/SOUTHWEST MOUNTAINS/TRANS PECOS

CITY           SKY/WX    TMP DP  RH WIND       PRES   REMARKS
ALPINE         PTCLDY    83  53  34 NE3       30.02F
DRYDEN           N/A     89  68  49 SE17      29.84R
EL PASO        MOSUNNY   91  43  18 S8        29.88S
FORT STOCKTON  CLEAR     91  59  33 SE14G23   29.85S
GUADALUPE PASS SUNNY     86  45  23 SW18      30.01F
MARFA          MOSUNNY   86  50  28 SE9       30.00F
PECOS          PTCLDY    96  52  22 SE15      29.81R
$$

DALLAS/FORT WORTH METROPLEX

CITY           SKY/WX    TMP DP  RH WIND       PRES   REMARKS
DFW AIRPORT    PTCLDY    93  66  40 S13       29.84S
FTW MEACHAM    CLEAR     94  67  41 SE18G29   29.84R
DAL-EXECUTIVE  CLEAR     92  66  42 SE13G20   29.85S
GRAND PRAIRIE  CLEAR     91  63  38 SE8       29.86S
ADDISON        CLEAR     91  66  43 SE14G21   29.87R
MESQUITE       CLEAR     91  66  43 SE9       29.87S
LANCASTER      CLEAR     92  66  42 SE12G17   29.87S
$$

NORTH CENTRAL TEXAS

CITY           SKY/WX    TMP DP  RH WIND       PRES   REMARKS
SHRMAN/DENISON CLEAR     89  67  49 SE10      29.88S
GAINESVILLE    CLEAR     89  67  48 SE10      29.88S
BRIDGEPORT     CLEAR     90  65  44 SE8       29.87R
DENTON         CLEAR     91  68  46 SE16      29.85S
WAXAHACHIE     CLEAR     91  66  43 SE7       29.87F
GRANBURY       CLEAR     92  65  41 SE12      29.85S
$$

WESTERN NORTH TEXAS

CITY           SKY/WX    TMP DP  RH WIND       PRES   REMARKS
WICHITA FALLS  PTCLDY    90  69  50 SE20G28   29.81R
VERNON         CLEAR     94  55  26 S13       29.79S
BRECKENRIDGE   CLEAR     94  62  34 SE12G18   29.83S
COMANCHE       PTCLDY    91  63  38 SE12G20   29.87R
$$

CENTRAL AND SOUTH CENTRAL TEXAS

CITY           SKY/WX    TMP DP  RH WIND       PRES   REMARKS
AUSTIN/BERGSTM PTCLDY    86  70  58 SE16G22   29.88R
WACO           CLEAR     89  70  53 SE21      29.86R
HILLSBORO      CLEAR     92  67  42 SE13      29.87S
TEMPLE         CLEAR     85  72  65 SE16      29.88R
KILLEEN-GRAY   PTCLDY    83  69  60 SE20      29.87R
FORT HOOD      CLEAR     83  69  62 SE18G25   29.85R
GEORGETOWN     CLEAR     82  70  66 SE10G17   29.91R
LAGO VISTA     FAIR      83  71  66 SE9G16    29.92R
SAN MARCOS     CLEAR     83  70  64 SE18      29.89R
NEW BRAUNFELS  CLEAR     83  70  64 SE25G33   29.88R
RANDOLPH AFB   MOCLDY    84  73  69 SE17G28   29.87R
SAN ANTONIO    MOCLDY    85  67  54 S24G38    29.88R
STINSON        TSTM      76  72  87 SE8G23    29.86R
PLEASANTON     NOT AVBL
LA GRANGE      PTCLDY    81  73  77 SE7       29.88S
GIDDINGS       PTCLDY    81  70  69 S6        29.91S
$$

EAST TEXAS

CITY           SKY/WX    TMP DP  RH WIND       PRES   REMARKS
PARIS          CLEAR     87  71  58 SE8       29.91R
CLARKSVILLE    NOT AVBL
TYLER          MOCLDY    80  70  71 SE9       29.93S
LONGVIEW       MOCLDY    77  71  82 SE5       29.93S
PALESTINE      CLOUDY    81  73  76 SE7       29.93F
NACOGDOCHES    CLOUDY    75  72  90 SE3       29.94F
$$

TEXAS HILL COUNTRY AND EDWARDS PLATEAU

CITY           SKY/WX    TMP DP  RH WIND       PRES   REMARKS
LLANO            N/A    N/A N/A N/A MISG        N/A
HORSESHOE BAY  FAIR      90  66  45 SE8       29.87S
KERRVILLE      CLEAR     89  68  49 SE10      29.89R
FREDERICKSBRG  PTCLDY    88  62  41 SE6       29.90R
ROCKSPRINGS    NOT AVBL
HONDO          CLEAR     93  66  40 SE13      29.84R
UVALDE         CLOUDY    93  65  40 E12       29.82S
DEL RIO        CLOUDY    93  70  46 SE13      29.79S
$$

SOUTHEAST TEXAS

CITY           SKY/WX    TMP DP  RH WIND       PRES   REMARKS
COLLEGE STN    CLOUDY    82  72  71 SE10      29.91S
CALDWELL       PTCLDY    81  71  73 S10       29.90F
CROCKETT       CLOUDY    81  73  78 S6        29.95F
BRENHAM        MOCLDY    80  73  77 SE8       29.92S
HUNTSVILLE     CLOUDY    80  71  74 S6        29.93F
CONROE         CLOUDY    78  72  81 SE6       29.93F
HOUSTON BUSH   CLOUDY    78  72  81 CALM      29.92F
HOUSTON HOBBY  CLOUDY    79  73  82 S3        29.92F
PERLAND        MOCLDY    79  73  82 CALM      29.93F
WHARTON        RAIN      73  71  93 NE6       29.92R
$$

THE UPPER TEXAS COAST

CITY           SKY/WX    TMP DP  RH WIND       PRES   REMARKS
ORANGE         CLOUDY    82  74  78 S5        29.95F
PORT ARTHUR    CLOUDY    80  74  81 S6        29.93S
GALVESTON      CLOUDY    84  77  79 SE13      29.92F
ANGLETON       LGT RAIN  77  74  90 N6        29.91F
BAY CITY       LGT RAIN  75  74  97 NE8       29.90F
$$

TEXAS COASTAL BEND, RIO GRANDE PLAINS DEEP SOUTH TEXAS

CITY           SKY/WX    TMP DP  RH WIND       PRES   REMARKS
VICTORIA       CLOUDY    74  67  78 SE13      29.87F
BEEVILLE       FAIR      82  81  98 SE10      29.87F
ROCKPORT       CLOUDY    84  77  79 SE13      29.88R
PORT ARANSAS   NOT AVBL
PORT LAVACA    NOT AVBL
CORPUS CHRISTI CLOUDY    85  77  77 SE18      29.86S
KINGSVILLE NAS LGT RAIN  82  82 100 SE13      29.85F FOG
COTULLA        PTCLDY    92  67  43 SE20G32   29.82R
LAREDO         PTCLDY    87  70  56 E18       29.80R
BROWNSVILLE    CLOUDY    87  77  72 SE18      29.85S
PORT ISABEL    CLOUDY    86  78  77 SE16      29.85R
HEBBRONVILLE   CLOUDY    83  72  67 SE16G23   29.86R
MCALLEN        PTCLDY    92  72  51 SE21      29.81R
WESLACO        MOCLDY    89  73  58 SE15G23   29.81S
FALFURRIAS     MOCLDY   -38  52 100 E6        29.84R WCI -56
EDINBURG       CLOUDY    88  74  64 E15       29.80F
$$




USA.gov is the U.S. government's official web portal to all federal, state and local government web resources and services.